CZ-2C R/B, 40287

Orbit data source: Space-Track

CZ-2C R/B, 40287 is space debris in SSO originally from a launch on Mon, 27 Oct 2014 UTC launched from the Jiuquan Satellite Launch Center, China (JSC). Debris objects in space refer to the collection of defunct objects orbiting the Earth. Examples of debris include non-operational satellites, rocket bodies, and fragments generated from explosions, collisions, or faulty payload assembly.

Loading next visibility...
Identifier
40287, 2014-066B
Orbit
SSO
Country
Flag of CNCN / PRC
Related business
Manufacturer
CALT
Mission
Spacecraft
Bus & Motor
CZ-2 STAGE 2, Unknown motor
Mass
~3,800 kg wet, ~3,800 kg dry
Launch date (UTC)
2014-10-27 (11 years ago)
Launch vehicle
Unknown
Launch site
Jiuquan Satellite Launch Center, China (JSC)
Object type
Payload
Rocket body
Debris
Shape & HBR
Cyl, 4.2 m
Radar Cross Section
26.048 m², Large (>1 m²)

Expand to show TLE details & history
Last TLE update: 1 day ago

TLE from 1 day ago
0 CZ-2C R/B
1 40287U 14066B   25260.01243888  .00000489  00000-0  94641-4 0  9996
2 40287  97.7526 290.4136 0009811  86.2304 274.0023 14.67246541582289
Epoch: 2025-09-17T00:17Z
TLE epoch observation values (Epoch: 2025-09-17T00:17:54.719Z)
Latitude
-0.00001°
Longitude
-70.25889°
Altitude
672.404 km
Speed
7.521 km/s
True Right ascension
19h 21m 39s
True Declination
0° 00' 00"
Sunlit
Object was in full shadow at epoch
Visualization orbit readout
Latitude
Unknown
Longitude
Unknown
Altitude
Unknown
Speed
Unknown
Apparent Right ascension
Unknown
Apparent Declination
Unknown
Sunlit
N/A
Visualization observer readout
Local Sidereal Time
19:10:40
Azimuth
Unknown
Elevation
Unknown
Doppler factor
Unknown
Orbital elements
Apogee altitude
673.835 km
Perigee altitude
660.011 km
Semi-major axis
7,045.06 km
Eccentricity
0.00098
Inclination
97.7526°
RAAN
290.4136°
Arg. of periapsis
86.2304°
True anomaly
273.89014°
Mean anomaly
274.0023°
Eccentric anomaly
273.94622°
Mean motion
3.67042 °/min
Orbital period
98.08 mins
BSTAR
0.000094641
Loading maneuver chart data...
Computing Atmospheric mass density...
Loading historical data...
Loading historical data...
Loading historical data...
Loading historical data...
Loading historical data...
Loading historical data...
Loading historical data...
Other satellites on launch #66 in the year 2014 (2014-10-27 UTC)

Documentation

Showing up to 5 results
|